Regional Weather Roundup
Issued by NWS Green Bay, WI

Home | Current Version | Previous Version | Text Only | Print | Product List | Glossary On
Versions: 1 2 3 4 5 6 7 8 9 10 11 12 13 14 15 16 17 18 19 20 21 22 23 24 25 26 27 28 29 30 31 32 33 34 35 36 37 38 39 40 41 42 43 44 45 46 47 48 49 50
000
ASUS43 KGRB 261700
RWRGRB

NORTH-CENTRAL AND NORTHEAST WISCONSIN REGIONAL WEATHER ROUNDUP
NATIONAL WEATHER SERVICE GREEN BAY WI
1200 PM CDT THU APR 26 2018

WIZ005-009-010>012-018-019-261800-
NORTH CENTRAL WISCONSIN

CITY           SKY/WX    TMP DP  RH WIND       PRES   REMARKS
IRONWOOD       FAIR      56  31  38 W13       29.79S
MANITOWISH WTR NOT AVBL
ARBOR VITAE    NOT AVBL
EAGLE RIVER    FAIR      56  28  35 SW12      29.80F
LAND O LAKES   FAIR      56  28  33 SW8       29.81F
RHINELANDER    FAIR      58  32  37 W10       29.82F
PHILLIPS       FAIR      56  32  40 SW9G18    29.81R
ANTIGO         NOT AVBL
TOMAHAWK       NOT AVBL
MERRILL        NOT AVBL
$$

WIZ013-073-261800-
NORTHEAST WISCONSIN

CITY           SKY/WX    TMP DP  RH WIND       PRES   REMARKS
IRON MOUNTAIN  FAIR      60  21  22 W13G20    29.79F
MARINETTE      FAIR      59  36  42 SW14      29.85F
$$

WIZ017-030-035>037-045-261800-
CENTRAL WISCONSIN

CITY           SKY/WX    TMP DP  RH WIND       PRES   REMARKS
MEDFORD        NOT AVBL
WAUSAU         FAIR      59  31  34 W12       29.83F
MOSINEE        MOSUNNY   57  32  38 SW15      29.87F
MARSHFIELD     FAIR      59  34  39 SW13      29.84F
WISC RAPIDS    FAIR      62  29  28 SW13      29.88F
STEVENS POINT  NOT AVBL
WAUPACA        FAIR      62  27  26 W12       29.88F
SHAWANO        FAIR      61  32  34 SW10      29.86F
CLINTONVILLE   FAIR      60  28  29 W10       29.86F
WAUTOMA        FAIR      61  28  28 SW10G18   29.89S
$$

WIZ038-039-048-051-261800-
FOX VALLEY

CITY           SKY/WX    TMP DP  RH WIND       PRES   REMARKS
NWS GREEN BAY  FAIR      58  37  45 SW12      29.88F
APPLETON       MOSUNNY   57  28  33 SW10      29.87F
OSHKOSH        FAIR      59  33  37 W8G18     29.89F
FOND DU LAC    FAIR      57  36  45 SW8       29.90F
$$

WIZ022-050-052-261800-
EAST CENTRAL WISCONSIN

CITY           SKY/WX    TMP DP  RH WIND       PRES   REMARKS
EPHRAIM        NOT AVBL
WASHINGTON ISL NOT AVBL
STURGEON BAY   FAIR      58  31  35 W16       29.87F
MANITOWOC      FAIR      59  31  34 W13       29.90S
SHEBOYGAN      FAIR      61  32  33 SW12      29.90S
$$

LMZ563-521-522-541>543-261800-
LAKESHORE

STATION/POSITION TIME  TEMP    WIND        PRES    VSBY  WAVE
                       AIR SEA DIR/SP/G                  HT/PER
                 (UTC) (F)     (DEG/KT/KT) (MB)    (MI)  (FT/S)
SHEBOYGAN LKSHOR 1600   40     160/ 14/ 15 1013.0F
KEWAUNEE LKSHORE 1630   41     150/  9/ 12 1011.4F
NORTHPORT PIER   1640   44                 1010.8F
SISTER BAY LKSHO 1627   54     290/  9/  9   N/A
MENOMINEE LKSHOR 1618   47     170/ 11/ 12 1010.8
$$



USA.gov is the U.S. government's official web portal to all federal, state and local government web resources and services.